Weather History for K05U - December, 2013

Change the Weather History Date:

Monday, December 9, 2013

  Actual Average Record
Temperature  
Mean Temperature 2 °F -  
Max Temperature 19 °F - - ()
Min Temperature -16 °F - - ()
Degree Days  
Heating Degree Days 64    
Moisture  
Dew Point -11 °F    
Average Humidity 62    
Maximum Humidity 84    
Minimum Humidity 28    
Precipitation  
Precipitation 0.00 in - - ()
Sea Level Pressure  
Sea Level Pressure 30.38 in    
Wind  
Wind Speed 4 mph (SSW)    
Max Wind Speed 10 mph    
Max Gust Speed -    
Visibility 10 miles    
Events      
T = Trace of Precipitation, MM = Missing Value Source: NWS Daily Summary

Daily Weather History Graph

Daily Weather History Graph

Search for Another Location

Airport or City:

Trip Planner

Search our weather history database for the weather conditions in past years. The results will help you decide how hot, cold, wet, or windy it might be!

Date:

Astronomy

Dec. 09, 2013 Rise Set
Actual Time 6:53 AM PST 4:19 PM PST
Civil Twilight 6:23 AM PST 4:50 PM PST
Nautical Twilight 5:49 AM PST 5:23 PM PST
Astronomical Twilight 5:16 AM PST 5:56 PM PST
Moon 11:50 AM PST (12/9) No Moon Set
Length of Visible Light 10h 26m
Length of Day
9h 26m
First Quarter, 52% of the Moon is Illuminated
Dec 9
First Quarter
Dec 17
Full
Dec 25
Last Quarter
Jan 1
New
Jan 7
First Quarter

Hourly Weather History & Observations

Time (PST) Temp. Windchill Dew Point Humidity Pressure Visibility Wind Dir Wind Speed Gust Speed Precip Events Conditions
12:00 AM -0.4 °F - -7.6 °F 72% 30.23 in 10.0 mi Calm Calm - N/A   Mostly Cloudy
12:20 AM -7.6 °F -20.6 °F -13.0 °F 77% 30.24 in 10.0 mi WSW 5.8 mph - N/A   Partly Cloudy
12:40 AM -7.6 °F -22.1 °F -13.0 °F 77% 30.24 in 10.0 mi SW 6.9 mph - N/A   Clear
1:00 AM -9.4 °F -20.9 °F -14.8 °F 77% 30.24 in 10.0 mi SSW 4.6 mph - N/A   Clear
1:20 AM -7.6 °F -20.6 °F -11.2 °F 84% 30.25 in 10.0 mi SW 5.8 mph - N/A   Clear
1:40 AM -11.2 °F -23.0 °F -16.6 °F 77% 30.26 in 10.0 mi South 4.6 mph - N/A   Clear
2:00 AM -13.0 °F -27.0 °F -18.4 °F 77% 30.28 in 10.0 mi SSW 5.8 mph - N/A   Clear
2:20 AM -13.0 °F -25.1 °F -20.2 °F 70% 30.28 in 10.0 mi SSW 4.6 mph - N/A   Clear
2:40 AM -16.6 °F -26.8 °F -22.0 °F 76% 30.29 in 10.0 mi South 3.5 mph - N/A   Clear
3:00 AM -13.0 °F -22.7 °F -18.4 °F 77% 30.30 in 10.0 mi SSE 3.5 mph - N/A   Clear
3:20 AM -11.2 °F -24.8 °F -16.6 °F 77% 30.30 in 10.0 mi SSW 5.8 mph - N/A   Clear
3:40 AM -14.8 °F -29.1 °F -20.2 °F 77% 30.31 in 10.0 mi SSE 5.8 mph - N/A   Clear
4:00 AM -16.6 °F -31.3 °F -22.0 °F 76% 30.32 in 10.0 mi SW 5.8 mph - N/A   Clear
4:20 AM -14.8 °F -27.2 °F -20.2 °F 77% 30.32 in 10.0 mi SSW 4.6 mph - N/A   Clear
4:40 AM -13.0 °F -28.6 °F -18.4 °F 77% 30.32 in 10.0 mi SSW 6.9 mph - N/A   Clear
5:00 AM -16.6 °F - -22.0 °F 76% 30.33 in 10.0 mi Calm Calm - N/A   Clear
5:20 AM -14.8 °F -27.2 °F -20.2 °F 77% 30.33 in 10.0 mi South 4.6 mph - N/A   Clear
5:40 AM -14.8 °F -29.1 °F -20.2 °F 77% 30.34 in 10.0 mi SSW 5.8 mph - N/A   Clear
6:00 AM -14.8 °F -30.8 °F -20.2 °F 77% 30.34 in 10.0 mi SSW 6.9 mph - N/A   Clear
6:20 AM -13.0 °F -27.0 °F -20.2 °F 70% 30.35 in 10.0 mi SW 5.8 mph - N/A   Clear
6:40 AM -13.0 °F -28.6 °F -20.2 °F 70% 30.37 in 10.0 mi SW 6.9 mph - N/A   Clear
7:00 AM -13.0 °F -27.0 °F -18.4 °F 77% 30.38 in 10.0 mi SSW 5.8 mph - N/A   Clear
7:20 AM -9.4 °F -22.7 °F -16.6 °F 71% 30.40 in 10.0 mi South 5.8 mph - N/A   Clear
7:40 AM -7.6 °F -23.4 °F -13.0 °F 77% 30.40 in 10.0 mi SSW 8.1 mph - N/A   Clear
8:00 AM -4.0 °F -14.6 °F -11.2 °F 71% 30.41 in 10.0 mi SSW 4.6 mph - N/A   Clear
8:20 AM -0.4 °F -8.3 °F -7.6 °F 72% 30.41 in 10.0 mi SW 3.5 mph - N/A   Clear
8:40 AM -0.4 °F - -7.6 °F 72% 30.42 in 10.0 mi Calm Calm - N/A   Clear
9:00 AM 3.2 °F -4.2 °F -5.8 °F 66% 30.42 in 10.0 mi SW 3.5 mph - N/A   Clear
9:20 AM 5.0 °F -4.1 °F -5.8 °F 61% 30.43 in 10.0 mi SW 4.6 mph - N/A   Clear
9:40 AM 8.6 °F 0.1 °F -4.0 °F 57% 30.43 in 10.0 mi SW 4.6 mph - N/A   Clear
10:00 AM 8.6 °F -1.3 °F -4.0 °F 57% 30.43 in 10.0 mi WSW 5.8 mph - N/A   Clear
10:20 AM 10.4 °F 2.2 °F -4.0 °F 52% 30.43 in 10.0 mi SW 4.6 mph - N/A   Clear
10:40 AM 10.4 °F 4.0 °F -4.0 °F 52% 30.43 in 10.0 mi SSW 3.5 mph - N/A   Clear
11:00 AM 14.0 °F 8.2 °F -4.0 °F 45% 30.44 in 10.0 mi South 3.5 mph - N/A   Clear
11:20 AM 14.0 °F 8.2 °F -4.0 °F 45% 30.44 in 10.0 mi SW 3.5 mph - N/A   Clear
11:40 AM 15.8 °F 10.2 °F -4.0 °F 41% 30.44 in 10.0 mi ENE 3.5 mph - N/A   Clear
12:00 PM 17.6 °F - -2.2 °F 42% 30.43 in 10.0 mi Calm Calm - N/A   Clear
12:20 PM 17.6 °F - -2.2 °F 42% 30.43 in 10.0 mi Calm Calm - N/A   Clear
12:40 PM 17.6 °F - -2.2 °F 42% 30.43 in 10.0 mi Calm Calm - N/A   Clear
1:00 PM 17.6 °F 12.3 °F -2.2 °F 42% 30.43 in 10.0 mi ENE 3.5 mph - N/A   Clear
1:20 PM 17.6 °F - -4.0 °F 38% 30.42 in 10.0 mi Calm Calm - N/A   Clear
1:40 PM 17.6 °F - -4.0 °F 38% 30.42 in 10.0 mi Calm Calm - N/A   Clear
2:00 PM 17.6 °F - -4.0 °F 38% 30.41 in 10.0 mi Calm Calm - N/A   Clear
2:20 PM 17.6 °F - -5.8 °F 35% 30.41 in 10.0 mi Calm Calm - N/A   Clear
2:40 PM 19.4 °F - -7.6 °F 30% 30.42 in 10.0 mi Calm Calm - N/A   Clear
3:00 PM 19.4 °F - -5.8 °F 33% 30.42 in 10.0 mi Calm Calm - N/A   Clear
3:20 PM 19.4 °F - -7.6 °F 30% 30.42 in 10.0 mi Calm Calm - N/A   Clear
3:40 PM 19.4 °F - -9.4 °F 28% 30.41 in 10.0 mi Calm Calm - N/A   Clear
4:00 PM 17.6 °F - -9.4 °F 30% 30.41 in 10.0 mi Calm Calm - N/A   Clear
4:20 PM 15.8 °F - -9.4 °F 32% 30.41 in 10.0 mi Calm Calm - N/A   Clear
4:40 PM 8.6 °F - -7.6 °F 48% 30.42 in 10.0 mi Calm Calm - N/A   Clear
5:00 PM 3.2 °F -9.1 °F -9.4 °F 56% 30.42 in 10.0 mi SSW 6.9 mph - N/A   Clear
5:20 PM 1.4 °F -12.5 °F -9.4 °F 61% 30.41 in 10.0 mi SSW 8.1 mph - N/A   Clear
5:40 PM 1.4 °F -11.3 °F -7.6 °F 66% 30.41 in 10.0 mi South 6.9 mph - N/A   Clear
6:00 PM -0.4 °F -10.4 °F -9.4 °F 66% 30.41 in 10.0 mi SSW 4.6 mph - N/A   Clear
6:20 PM -0.4 °F -8.3 °F -9.4 °F 66% 30.41 in 10.0 mi South 3.5 mph - N/A   Clear
6:40 PM -0.4 °F -13.4 °F -9.4 °F 66% 30.41 in 10.0 mi South 6.9 mph - N/A   Clear
7:00 PM -4.0 °F -12.4 °F -11.2 °F 71% 30.42 in 10.0 mi South 3.5 mph - N/A   Clear
7:20 PM -2.2 °F -15.6 °F -9.4 °F 71% 30.42 in 10.0 mi South 6.9 mph - N/A   Clear
7:40 PM -2.2 °F -15.6 °F -9.4 °F 71% 30.41 in 10.0 mi South 6.9 mph - N/A   Clear
8:00 PM -4.0 °F -17.8 °F -11.2 °F 71% 30.41 in 10.0 mi South 6.9 mph - N/A   Clear
8:20 PM -2.2 °F -16.8 °F -9.4 °F 71% 30.41 in 10.0 mi SSW 8.1 mph - N/A   Clear
8:40 PM -0.4 °F -15.7 °F -9.4 °F 66% 30.40 in 10.0 mi South 9.2 mph - N/A   Clear
9:00 PM -0.4 °F -14.7 °F -7.6 °F 72% 30.40 in 10.0 mi SSW 8.1 mph - N/A   Clear
9:20 PM 1.4 °F -13.5 °F -7.6 °F 66% 30.41 in 10.0 mi SSW 9.2 mph - N/A   Clear
9:40 PM 1.4 °F -13.5 °F -7.6 °F 66% 30.41 in 10.0 mi SSW 9.2 mph - N/A   Clear
10:00 PM -0.4 °F -13.4 °F -9.4 °F 66% 30.41 in 10.0 mi WSW 6.9 mph - N/A   Clear
10:20 PM -2.2 °F -15.6 °F -9.4 °F 71% 30.42 in 10.0 mi SW 6.9 mph - N/A   Clear
10:40 PM -0.4 °F -13.4 °F -7.6 °F 72% 30.42 in 10.0 mi SW 6.9 mph - N/A   Clear
11:00 PM -0.4 °F -16.7 °F -5.8 °F 78% 30.42 in 10.0 mi SW 10.4 mph - N/A   Clear
11:20 PM 3.2 °F -12.2 °F -5.8 °F 66% 30.42 in 10.0 mi SSW 10.4 mph - N/A   Clear
11:40 PM -0.4 °F -13.4 °F -7.6 °F 72% 30.42 in 10.0 mi SW 6.9 mph - N/A   Clear